Regional Weather Roundup
Issued by NWS

Home | Current Version | Previous Version | Graphics & Text | Print | Product List | Glossary On
Versions: 1 2 3 4 5 6 7 8 9 10 11 12 13 14 15 16 17 18 19 20 21 22 23 24 25 26 27 28 29 30 31 32 33 34 35 36 37 38 39 40 41 42 43 44 45 46 47 48 49 50
000
ASUS45 KCYS 010910
RWRWY

WYOMING REGIONAL WEATHER ROUNDUP
NATIONAL WEATHER SERVICE CHEYENNE WY
300 AM MDT SAT AUG 01 2015

NOTE:  "FAIR" INDICATES FEW OR NO CLOUDS BELOW 12,000 FEET
WITH NO SIGNIFICANT WEATHER AND/OR OBSTRUCTIONS TO VISIBILITY.

WYZ001-011000-
YELLOWSTONE NATIONAL PARK

CITY           SKY/WX    TMP DP  RH WIND       PRES   REMARKS
LK YELLOWSTONE   N/A     41  30  65 CALM      30.44F
W YELLOWSTONE  NOT AVBL

$$
WYZ002>013-054>058-071-098>099-011000-
NORTHERN WYOMING

CITY           SKY/WX    TMP DP  RH WIND       PRES   REMARKS
JACKSON        NOT AVBL
CODY           FAIR      64  34  32 SW5       30.21F
GREYBULL       FAIR      66  35  31 CALM      30.08S
WORLAND        FAIR      63  35  35 SW9       30.11S
SHERIDAN       FAIR      64  41  42 VRB3      30.10F
BUFFALO        FAIR      66  37  34 VRB6      30.17F
GILLETTE       FAIR      67  49  52 S14       30.11F
HULETT         FAIR      73  46  38 SW6       30.11F
NEWCASTLE      FAIR      73  45  35 E8        30.12F

$$
WYZ014>020-022>026-101>103-011000-
CENTRAL WYOMING

CITY           SKY/WX    TMP DP  RH WIND       PRES   REMARKS
BIG PINEY      FAIR      52  31  44 CALM      30.34S
PINEDALE       FAIR      45  36  70 NW6       30.34F
DUBOIS         FAIR      52  30  43 NW10      30.36F
LANDER         FAIR      65  28  24 VRB7      30.21S
RIVERTON       FAIR      66  30  26 NW13      30.21F
CASPER         FAIR      56  39  53 N3        30.18R
DOUGLAS        FAIR      64  49  57 CALM      30.15S

$$
WYZ021-027>030-104>119-011000-
SOUTHERN WYOMING

CITY           SKY/WX    TMP DP  RH WIND       PRES   REMARKS
EVANSTON       FAIR      60  26  27 SE6       30.33F
KEMMERER       FAIR      54  32  43 NW9       30.34F
FORT BRIDGER   SUNNY     63  27  25 W8        30.35F
ROCK SPRINGS   FAIR      58  24  27 CALM      30.29S
DIXON          FAIR      54  30  40 NE5       30.29S
RAWLINS        FAIR      59  39  47 CALM      30.28S
SARATOGA       FAIR      57  41  54 N3        30.30S
LARAMIE        FAIR      53  45  74 S9        30.32S
CHEYENNE       FAIR      58  50  75 W6        30.25F
TORRINGTON     FAIR      62  53  72 E10       30.11F
PINE BLUFFS    FAIR      61  52  72 SW8       30.20F

$$


USA.gov is the U.S. government's official web portal to all federal, state and local government web resources and services.